QPF
0.00 0.00 0.00 0.00 0.00 0.00 0.00 0.00 0.00 0.00 0.00 0.00 0.00 0.00 0.00 0.00 0.00 0.00 0.00 0.00 0.00 0.00 0.00 0.00 0.00 0.00 0.00 0.00 0.00 0.00 0.00 0.00 0.00 0.00 0.00 0.00 0.00 0.00 0.00 0.00 0.00 0.00 0.00 0.00 0.01 0.02 0.03 0.01 0.00 0.01 0.01 0.00 0.00 0.01
0.00 0.00 0.00 0.00 0.00 0.00 0.00 0.00 0.00 0.00 0.00 0.00 0.00 0.00 0.00 0.00 0.00 0.00 0.00 0.00 0.00 0.00 0.00 0.00 0.00 0.00 0.00 0.00 0.00 0.00 0.00 0.00 0.00 0.00 0.00 0.00 0.00 0.00 0.00 0.00 0.00 0.00 0.00 0.00 0.00 0.01 0.05 0.02 0.01 0.01 0.00 0.00 0.00 0.00
0.00 0.00 0.00 0.00 0.00 0.00 0.00 0.00 0.00 0.00 0.00 0.00 0.00 0.00 0.00 0.00 0.00 0.00 0.00 0.00 0.00 0.00 0.00 0.00 0.00 0.00 0.00 0.00 0.00 0.00 0.00 0.00 0.00 0.00 0.01 0.01 0.00 0.00 0.00 0.00 0.00 0.00 0.00 0.00 0.01 0.01 0.02 0.02 0.00 0.00 0.00 0.00 0.00 0.00
0.00 0.00 0.00 0.00 0.00 0.00 0.00 0.00 0.00 0.00 0.00 0.00 0.00 0.00 0.00 0.00 0.00 0.00 0.00 0.00 0.00 0.00 0.00 0.00 0.00 0.00 0.00 0.00 0.00 0.00 0.00 0.00 0.00 0.01 0.03 0.02 0.01 0.00 0.00 0.00 0.00 0.00 0.01 0.01 0.01 0.04 0.05 0.01 0.00 0.00 0.00 0.00 0.00 0.00
0.00 0.00 0.00 0.00 0.00 0.00 0.00 0.00 0.00 0.00 0.00 0.00 0.00 0.00 0.00 0.00 0.00 0.00 0.00 0.00 0.00 0.00 0.00 0.00 0.00 0.00 0.00 0.00 0.00 0.00 0.00 0.00 0.00 0.01 0.01 0.01 0.01 0.01 0.01 0.01 0.00 0.00 0.01 0.02 0.04 0.02 0.01 0.00 0.00 0.00 0.00 0.00 0.00 0.00
0.00 0.00 0.00 0.00 0.00 0.00 0.00 0.00 0.00 0.00 0.00 0.00 0.00 0.00 0.00 0.00 0.00 0.00 0.00 0.01 0.00 0.00 0.00 0.00 0.00 0.00 0.00 0.00 0.00 0.00 0.00 0.00 0.00 0.00 0.01 0.01 0.00 0.01 0.01 0.02 0.00 0.00 0.00 0.00 0.00 0.00 0.00 0.00 0.00 0.00 0.00 0.00 0.00 0.00
0.00 0.00 0.00 0.00 0.00 0.00 0.00 0.00 0.00 0.00 0.00 0.00 0.00 0.00 0.00 0.00 0.00 0.00 0.00 0.00 0.00 0.00 0.00 0.00 0.00 0.00 0.00 0.00 0.00 0.00 0.00 0.00 0.00 0.01 0.01 0.01 0.01 0.01 0.02 0.01 0.00 0.00 0.00 0.00 0.00 0.00 0.00 0.00 0.00 0.00 0.00 0.00 0.00 0.00
0.00 0.00 0.00 0.00 0.00 0.00 0.00 0.00 0.00 0.00 0.00 0.00 0.00 0.00 0.00 0.00 0.00 0.00 0.00 0.00 0.00 0.00 0.00 0.00 0.00 0.00 0.00 0.00 0.00 0.00 0.00 0.00 0.00 0.01 0.01 0.01 0.00 0.01 0.01 0.00 0.00 0.00 0.00 0.00 0.00 0.00 0.00 0.00 0.00 0.00 0.00 0.00 0.00 0.00
0.00 0.00 0.00 0.00 0.00 0.00 0.00 0.00 0.00 0.00 0.00 0.00 0.00 0.00 0.00 0.00 0.00 0.00 0.00 0.00 0.00 0.00 0.01 0.00 0.00 0.00 0.00 0.00 0.00 0.00 0.00 0.00 0.01 0.01 0.01 0.00 0.00 0.00 0.00 0.00 0.00 0.00 0.00 0.00 0.00 0.00 0.00 0.00 0.00 0.00 0.00 0.00 0.00 0.00
0.00 0.00 0.00 0.00 0.00 0.00 0.00 0.00 0.00 0.00 0.00 0.00 0.00 0.00 0.00 0.00 0.00 0.00 0.00 0.00 0.00 0.00 0.00 0.00 0.00 0.00 0.00 0.00 0.00 0.00 0.00 0.00 0.01 0.01 0.00 0.01 0.00 0.00 0.00 0.00 0.00 0.00 0.00 0.00 0.00 0.00 0.00 0.00 0.00 0.00 0.00 0.00 0.00 0.00
0.00 0.00 0.00 0.00 0.00 0.00 0.00 0.00 0.00 0.00 0.00 0.00 0.00 0.00 0.00 0.00 0.00 0.00 0.00 0.00 0.00 0.00 0.00 0.00 0.00 0.00 0.00 0.00 0.00 0.00 0.00 0.00 0.00 0.00 0.00 0.00 0.00 0.00 0.00 0.00 0.00 0.00 0.00 0.00 0.00 0.00 0.00 0.00 0.00 0.00 0.00 0.00 0.01 0.00
0.00 0.00 0.00 0.00 0.00 0.00 0.00 0.00 0.00 0.00 0.00 0.00 0.00 0.00 0.00 0.00 0.00 0.00 0.00 0.00 0.00 0.00 0.00 0.00 0.00 0.00 0.00 0.00 0.00 0.00 0.00 0.01 0.00 0.00 0.00 0.00 0.00 0.00 0.00 0.00 0.00 0.00 0.00 0.00 0.00 0.00 0.00 0.00 0.00 0.00 0.00 0.00 0.00 0.00
0.00 0.00 0.00 0.00 0.00 0.00 0.00 0.00 0.00 0.00 0.00 0.00 0.00 0.00 0.00 0.00 0.00 0.00 0.00 0.00 0.00 0.00 0.00 0.00 0.00 0.00 0.00 0.00 0.01 0.00 0.01 0.00 0.00 0.00 0.00 0.00 0.00 0.00 0.00 0.00 0.00 0.00 0.00 0.00 0.00 0.00 0.00 0.00 0.00 0.00 0.00 0.00 0.00 0.00
0.00 0.00 0.00 0.00 0.00 0.00 0.00 0.00 0.00 0.00 0.00 0.00 0.00 0.00 0.00 0.00 0.00 0.00 0.00 0.00 0.00 0.00 0.00 0.00 0.00 0.00 0.00 0.01 0.00 0.01 0.01 0.01 0.01 0.00 0.00 0.00 0.00 0.00 0.00 0.00 0.00 0.00 0.00 0.00 0.00 0.00 0.00 0.00 0.00 0.00 0.00 0.00 0.00 0.00
0.00 0.00 0.00 0.00 0.00 0.00 0.00 0.00 0.00 0.00 0.00 0.00 0.00 0.00 0.00 0.00 0.00 0.00 0.00 0.00 0.00 0.00 0.00 0.00 0.00 0.00 0.01 0.01 0.01 0.01 0.01 0.00 0.00 0.00 0.00 0.00 0.00 0.00 0.00 0.00 0.00 0.00 0.00 0.00 0.00 0.00 0.00 0.00 0.00 0.00 0.00 0.00 0.00 0.00
0.00 0.00 0.00 0.00 0.00 0.00 0.01 0.00 0.00 0.00 0.00 0.00 0.00 0.00 0.00 0.00 0.00 0.00 0.00 0.00 0.00 0.00 0.00 0.00 0.02 0.02 0.01 0.00 0.01 0.00 0.00 0.00 0.00 0.00 0.00 0.00 0.00 0.00 0.00 0.00 0.00 0.00 0.00 0.00 0.00 0.00 0.00 0.00 0.00 0.00 0.00 0.00 0.00 0.00
0.01 0.00 0.00 0.00 0.00 0.00 0.01 0.02 0.02 0.01 0.00 0.01 0.00 0.00 0.00 0.00 0.00 0.00 0.00 0.00 0.00 0.00 0.01 0.03 0.05 0.02 0.01 0.02 0.01 0.00 0.00 0.00 0.00 0.00 0.00 0.00 0.00 0.00 0.00 0.00 0.00 0.00 0.00 0.00 0.00 0.00 0.00 0.00 0.00 0.00 0.00 0.00 0.00 0.00
0.01 0.00 0.00 0.00 0.01 0.03 0.03 0.05 0.07 0.03 0.01 0.00 0.00 0.00 0.00 0.00 0.00 0.00 0.00 0.00 0.00 0.00 0.02 0.03 0.03 0.04 0.02 0.00 0.00 0.00 0.00 0.00 0.00 0.00 0.00 0.00 0.00 0.00 0.00 0.01 0.00 0.00 0.00 0.00 0.00 0.00 0.00 0.00 0.00 0.00 0.00 0.00 0.00 0.00
0.03 0.02 0.02 0.03 0.06 0.18 0.18 0.12 0.06 0.04 0.00 0.00 0.00 0.00 0.00 0.00 0.00 0.00 0.00 0.00 0.00 0.00 0.06 0.09 0.08 0.03 0.00 0.00 0.00 0.00 0.00 0.00 0.00 0.00 0.01 0.01 0.01 0.01 0.01 0.01 0.00 0.00 0.00 0.00 0.00 0.00 0.00 0.00 0.00 0.00 0.00 0.00 0.00 0.00
0.04 0.04 0.03 0.05 0.09 0.23 0.16 0.06 0.05 0.04 0.01 0.00 0.00 0.00 0.00 0.00 0.00 0.00 0.00 0.00 0.00 0.04 0.12 0.08 0.03 0.01 0.01 0.02 0.03 0.04 0.04 0.03 0.03 0.03 0.04 0.02 0.01 0.01 0.01 0.01 0.00 0.00 0.00 0.00 0.00 0.00 0.00 0.00 0.00 0.00 0.00 0.00 0.00 0.00
0.04 0.02 0.01 0.04 0.08 0.11 0.13 0.05 0.04 0.01 0.00 0.00 0.00 0.00 0.00 0.00 0.00 0.00 0.00 0.00 0.02 0.04 0.04 0.03 0.03 0.03 0.04 0.06 0.06 0.05 0.05 0.04 0.03 0.03 0.02 0.02 0.01 0.01 0.00 0.00 0.00 0.00 0.00 0.00 0.00 0.00 0.00 0.00 0.00 0.00 0.00 0.00 0.00 0.00
0.03 0.03 0.06 0.07 0.12 0.14 0.11 0.02 0.01 0.00 0.02 0.01 0.00 0.00 0.00 0.00 0.00 0.00 0.00 0.03 0.04 0.03 0.03 0.03 0.03 0.04 0.04 0.05 0.05 0.04 0.04 0.04 0.03 0.03 0.02 0.01 0.01 0.00 0.00 0.00 0.00 0.00 0.00 0.00 0.00 0.00 0.00 0.00 0.00 0.00 0.00 0.00 0.00 0.00
0.02 0.04 0.06 0.07 0.09 0.07 0.04 0.01 0.04 0.05 0.07 0.04 0.02 0.02 0.04 0.04 0.03 0.02 0.05 0.05 0.03 0.03 0.04 0.04 0.04 0.04 0.04 0.04 0.03 0.03 0.03 0.03 0.02 0.01 0.00 0.00 0.00 0.00 0.00 0.00 0.00 0.00 0.00 0.00 0.00 0.00 0.00 0.00 0.00 0.00 0.00 0.00 0.00 0.00
0.02 0.12 0.15 0.16 0.16 0.11 0.07 0.06 0.10 0.09 0.11 0.10 0.11 0.10 0.09 0.07 0.06 0.07 0.08 0.06 0.06 0.06 0.05 0.05 0.05 0.04 0.04 0.03 0.03 0.02 0.01 0.00 0.00 0.00 0.00 0.00 0.00 0.00 0.00 0.00 0.00 0.00 0.00 0.00 0.00 0.00 0.00 0.00 0.00 0.00 0.00 0.00 0.00 0.00
0.10 0.12 0.11 0.10 0.07 0.05 0.06 0.05 0.05 0.05 0.04 0.03 0.03 0.02 0.03 0.02 0.04 0.03 0.02 0.03 0.03 0.03 0.03 0.02 0.02 0.01 0.01 0.00 0.00 0.00 0.00 0.00 0.00 0.00 0.00 0.00 0.00 0.00 0.00 0.00 0.00 0.00 0.00 0.00 0.00 0.00 0.00 0.00 0.00 0.00 0.00 0.00 0.00 0.01
0.06 0.05 0.03 0.02 0.01 0.01 0.01 0.01 0.02 0.01 0.01 0.01 0.01 0.01 0.01 0.02 0.02 0.02 0.02 0.02 0.02 0.01 0.01 0.00 0.00 0.00 0.00 0.00 0.00 0.00 0.00 0.00 0.00 0.00 0.00 0.00 0.00 0.00 0.00 0.00 0.00 0.00 0.00 0.00 0.00 0.00 0.00 0.00 0.00 0.00 0.00 0.00 0.00 0.00
0.01 0.01 0.00 0.00 0.00 0.00 0.00 0.00 0.01 0.00 0.00 0.00 0.00 0.00 0.00 0.01 0.01 0.01 0.01 0.01 0.00 0.00 0.00 0.00 0.00 0.00 0.00 0.00 0.00 0.00 0.00 0.00 0.00 0.00 0.00 0.00 0.00 0.00 0.00 0.00 0.00 0.00 0.00 0.00 0.01 0.00 0.00 0.00 0.00 0.00 0.00 0.00 0.00 0.00
0.00 0.00 0.00 0.00 0.00 0.00 0.00 0.00 0.00 0.00 0.00 0.00 0.00 0.00 0.00 0.00 0.00 0.00 0.00 0.00 0.00 0.00 0.00 0.00 0.00 0.00 0.00 0.00 0.00 0.00 0.00 0.00 0.00 0.00 0.00 0.00 0.00 0.00 0.00 0.00 0.00 0.00 0.00 0.00 0.00 0.01 0.01 0.01 0.00 0.00 0.01 0.01 0.00 0.00
0.00 0.00 0.00 0.00 0.00 0.00 0.00 0.00 0.00 0.00 0.00 0.00 0.00 0.00 0.00 0.00 0.00 0.00 0.00 0.00 0.00 0.00 0.00 0.00 0.00 0.00 0.00 0.00 0.00 0.00 0.00 0.00 0.00 0.00 0.00 0.00 0.00 0.00 0.00 0.00 0.00 0.00 0.00 0.00 0.00 0.00 0.01 0.02 0.03 0.05 0.05 0.01 0.00 0.00
0.00 0.00 0.00 0.00 0.00 0.00 0.00 0.00 0.00 0.00 0.00 0.00 0.00 0.00 0.00 0.00 0.00 0.00 0.00 0.00 0.00 0.00 0.00 0.00 0.00 0.00 0.00 0.00 0.00 0.00 0.00 0.00 0.00 0.00 0.00 0.00 0.00 0.00 0.00 0.00 0.00 0.00 0.00 0.00 0.00 0.00 0.00 0.01 0.01 0.00 0.00 0.00 0.00 0.00
0.00 0.00 0.00 0.00 0.00 0.00 0.00 0.00 0.00 0.00 0.00 0.00 0.00 0.00 0.00 0.00 0.00 0.00 0.00 0.00 0.00 0.00 0.00 0.00 0.00 0.00 0.00 0.00 0.00 0.00 0.00 0.00 0.00 0.00 0.00 0.00 0.00 0.00 0.00 0.00 0.00 0.00 0.00 0.00 0.00 0.00 0.00 0.00 0.00 0.00 0.00 0.00 0.00 0.00
0.00 0.00 0.00 0.00 0.00 0.00 0.00 0.00 0.00 0.00 0.00 0.00 0.00 0.00 0.00 0.00 0.00 0.00 0.00 0.00 0.00 0.00 0.00 0.00 0.00 0.00 0.00 0.00 0.00 0.00 0.00 0.00 0.00 0.00 0.00 0.01 0.01 0.01 0.01 0.02 0.01 0.00 0.01 0.01 0.00 0.00 0.00 0.00 0.00 0.00 0.00 0.00 0.00 0.00
0.00 0.00 0.00 0.00 0.00 0.00 0.00 0.00 0.00 0.00 0.00 0.00 0.00 0.00 0.00 0.00 0.00 0.00 0.00 0.00 0.00 0.00 0.00 0.00 0.00 0.00 0.00 0.00 0.00 0.00 0.00 0.00 0.00 0.00 0.01 0.01 0.02 0.02 0.02 0.02 0.04 0.06 0.05 0.02 0.01 0.00 0.00 0.00 0.00 0.00 0.00 0.00 0.00 0.00
MSLP
1028.33 1028.41 1028.49 1028.62 1028.72 1028.90 1028.63 1028.67 1028.48 1028.29 1027.94 1027.39 1027.06 1026.83 1026.47 1026.10 1025.89 1025.69 1026.01 1025.79 1025.95 1025.60 1024.66 1024.40 1024.45 1024.32 1024.05 1023.86 1023.96 1023.57 1023.46 1023.04 1022.94 1022.86 1022.22 1021.24 1020.50 1020.35 1020.37 1020.15 1020.48 1021.09 1021.25 1021.43 1020.86 1020.59 1020.47 1020.37 1020.38 1021.13 1022.44 1022.77 1023.08 1023.19
1028.86 1028.97 1029.03 1029.24 1029.20 1029.28 1029.29 1029.09 1028.78 1028.67 1028.39 1027.99 1027.65 1027.30 1026.92 1026.63 1026.37 1026.09 1026.10 1025.96 1026.00 1026.13 1025.68 1025.49 1025.20 1025.23 1025.17 1025.22 1025.08 1024.49 1024.41 1024.39 1024.08 1023.42 1022.84 1022.34 1021.97 1021.34 1021.21 1021.15 1020.55 1020.77 1020.26 1020.54 1020.53 1020.39 1020.73 1021.03 1021.33 1021.69 1022.14 1022.78 1023.33 1023.68
1029.52 1029.63 1029.67 1029.83 1029.87 1029.82 1029.65 1029.49 1029.31 1029.10 1028.83 1028.33 1027.91 1027.57 1027.35 1027.10 1026.88 1026.65 1026.41 1026.33 1026.10 1026.27 1025.75 1025.26 1025.10 1025.24 1025.25 1025.52 1025.76 1025.78 1025.17 1025.42 1025.10 1025.14 1024.64 1023.90 1023.03 1022.01 1021.85 1021.21 1020.60 1020.27 1020.18 1020.33 1020.47 1021.15 1021.17 1021.36 1021.36 1021.39 1022.35 1022.82 1023.32 1023.46
1030.07 1030.18 1030.16 1030.24 1030.22 1030.10 1029.88 1029.74 1029.55 1029.28 1028.95 1028.49 1028.14 1027.92 1027.59 1027.33 1027.08 1026.78 1026.77 1026.90 1026.75 1026.61 1026.51 1025.53 1025.09 1025.24 1025.47 1025.64 1025.64 1025.79 1026.07 1025.97 1025.96 1025.74 1025.28 1024.49 1023.65 1022.54 1022.22 1021.86 1021.65 1020.82 1020.75 1020.51 1020.57 1021.10 1021.58 1021.72 1021.51 1021.93 1022.48 1022.77 1023.11 1023.30
1030.59 1030.64 1030.59 1030.56 1030.49 1030.36 1030.20 1030.02 1029.76 1029.41 1029.02 1028.63 1028.31 1027.94 1027.62 1027.39 1027.12 1027.14 1027.13 1027.32 1027.06 1027.33 1027.16 1026.03 1025.26 1025.27 1025.37 1025.62 1025.94 1026.32 1026.40 1026.33 1025.97 1025.65 1025.21 1024.75 1023.84 1023.43 1022.79 1022.39 1021.77 1020.86 1020.63 1020.69 1020.75 1021.05 1021.18 1021.52 1021.72 1021.93 1022.36 1022.76 1023.03 1023.60
1031.09 1030.99 1030.96 1030.83 1030.62 1030.39 1030.26 1030.16 1029.90 1029.50 1029.09 1028.70 1028.31 1027.91 1027.59 1027.37 1027.12 1027.15 1027.36 1027.63 1027.42 1027.27 1027.40 1026.86 1025.67 1025.40 1025.56 1025.97 1026.52 1026.57 1026.53 1026.24 1026.04 1025.65 1024.96 1024.17 1023.95 1024.14 1023.71 1022.92 1021.98 1021.48 1021.13 1020.87 1021.17 1021.15 1021.45 1021.61 1021.82 1022.03 1022.64 1023.01 1023.52 1023.85
1031.41 1031.34 1031.23 1031.09 1030.83 1030.63 1030.34 1030.13 1029.76 1029.38 1029.05 1028.62 1028.16 1027.85 1027.59 1027.21 1027.07 1027.44 1028.03 1028.21 1027.78 1027.56 1027.71 1027.32 1026.41 1025.76 1025.97 1026.11 1026.29 1026.45 1026.62 1026.28 1026.14 1025.64 1024.93 1024.47 1024.09 1024.39 1024.09 1023.60 1022.71 1022.33 1022.13 1021.84 1021.89 1021.93 1022.23 1022.27 1022.74 1022.92 1023.17 1023.54 1023.94 1024.17
1031.67 1031.49 1031.33 1031.13 1030.91 1030.59 1030.26 1029.97 1029.58 1029.16 1028.81 1028.28 1028.04 1027.89 1027.74 1027.42 1027.63 1027.85 1028.09 1027.96 1027.70 1027.86 1028.05 1027.87 1026.86 1026.35 1026.14 1026.24 1026.49 1026.52 1026.53 1026.36 1025.85 1025.49 1025.06 1024.84 1024.81 1024.87 1024.59 1023.37 1023.36 1023.33 1022.97 1022.95 1022.94 1023.08 1023.31 1023.37 1023.41 1023.68 1023.83 1024.31 1024.73 1025.29
1031.73 1031.58 1031.43 1031.11 1030.83 1030.53 1030.08 1029.77 1029.42 1028.98 1028.46 1028.19 1028.05 1027.90 1028.01 1028.22 1028.33 1028.46 1028.31 1027.92 1028.04 1028.34 1028.02 1027.84 1027.45 1026.93 1026.60 1026.39 1026.31 1026.51 1026.55 1026.28 1025.83 1025.64 1025.38 1025.57 1025.06 1025.06 1024.31 1024.37 1024.36 1024.15 1024.10 1024.07 1023.98 1023.92 1024.26 1024.39 1024.33 1024.58 1025.11 1025.33 1025.55 1025.82
1031.72 1031.52 1031.36 1031.06 1030.85 1030.56 1030.26 1029.84 1029.38 1028.81 1028.32 1028.06 1028.17 1028.39 1028.60 1028.84 1028.38 1028.51 1028.08 1028.31 1028.31 1028.48 1028.50 1028.03 1027.56 1027.40 1027.15 1026.82 1026.92 1026.87 1026.26 1026.28 1026.01 1025.57 1025.58 1025.75 1025.32 1024.74 1025.31 1025.29 1025.16 1025.11 1025.04 1025.15 1025.16 1025.41 1025.37 1025.40 1025.74 1025.78 1026.01 1025.92 1025.96 1026.03
1031.83 1031.62 1031.32 1031.18 1030.92 1030.45 1030.22 1029.87 1029.29 1028.75 1028.53 1028.68 1028.91 1029.04 1029.00 1028.79 1028.73 1028.67 1028.73 1029.12 1028.74 1028.62 1028.45 1028.12 1027.70 1027.61 1027.22 1027.53 1027.46 1027.17 1027.15 1026.64 1026.56 1025.95 1026.14 1025.62 1025.66 1025.97 1025.94 1026.00 1026.07 1025.60 1025.52 1025.76 1026.04 1026.38 1026.55 1026.66 1026.59 1026.46 1026.36 1026.11 1026.09 1026.16
1031.77 1031.54 1031.34 1031.02 1030.76 1030.33 1030.04 1029.84 1029.46 1029.42 1029.59 1029.31 1029.43 1029.26 1029.24 1029.20 1029.44 1029.66 1029.34 1029.56 1029.34 1028.19 1027.72 1027.80 1027.59 1027.64 1027.45 1027.54 1027.68 1027.52 1027.55 1027.36 1026.54 1026.23 1026.57 1026.10 1026.15 1026.42 1026.60 1026.43 1026.45 1025.89 1025.81 1026.07 1026.27 1026.53 1026.61 1026.59 1026.56 1026.52 1026.44 1026.33 1026.35 1026.37
1031.62 1031.36 1031.09 1030.74 1030.41 1030.11 1029.82 1029.58 1029.45 1029.34 1029.16 1029.57 1029.65 1029.70 1029.77 1029.95 1030.08 1029.85 1029.82 1029.13 1028.64 1027.61 1027.21 1027.33 1027.53 1027.32 1027.46 1027.79 1027.73 1027.64 1027.48 1026.98 1026.38 1026.50 1025.93 1025.57 1025.97 1026.38 1026.27 1026.29 1026.21 1025.98 1025.60 1025.81 1026.17 1026.44 1026.69 1026.66 1026.70 1026.61 1026.42 1026.46 1026.18 1026.14
1031.17 1030.93 1030.69 1030.47 1030.21 1029.77 1029.48 1029.52 1029.36 1029.31 1029.45 1030.09 1030.32 1030.34 1030.01 1029.74 1029.40 1028.62 1028.32 1027.94 1027.33 1026.99 1026.89 1026.90 1027.14 1027.24 1027.13 1027.42 1027.23 1027.38 1026.67 1026.63 1026.27 1025.84 1025.09 1024.79 1025.36 1025.74 1025.77 1025.92 1025.79 1025.70 1025.88 1026.34 1026.47 1026.51 1026.68 1026.72 1026.64 1026.55 1026.36 1026.13 1025.93 1025.74
1030.76 1030.42 1030.11 1029.73 1029.59 1029.56 1029.38 1029.33 1029.34 1029.56 1030.05 1030.24 1030.47 1030.01 1028.96 1027.99 1027.70 1027.66 1027.65 1027.67 1027.00 1026.86 1026.92 1026.78 1026.70 1026.80 1026.86 1027.01 1026.75 1026.74 1026.48 1026.00 1025.12 1024.08 1023.60 1023.91 1024.52 1024.97 1025.32 1025.42 1025.44 1025.68 1025.96 1026.07 1026.31 1026.53 1026.75 1026.75 1026.61 1026.52 1026.40 1026.23 1025.98 1025.65
1030.10 1029.90 1029.56 1029.18 1029.10 1029.24 1029.13 1029.39 1029.68 1029.98 1029.97 1029.77 1029.25 1028.63 1027.98 1028.19 1027.36 1027.29 1027.17 1027.04 1026.42 1026.38 1026.44 1026.46 1026.35 1026.10 1026.20 1026.07 1025.86 1025.74 1025.38 1024.36 1023.06 1022.94 1023.06 1023.69 1024.35 1024.97 1025.48 1025.81 1025.96 1026.11 1026.45 1026.75 1026.80 1026.98 1027.12 1026.98 1026.68 1026.53 1026.22 1026.09 1026.12 1026.02
1029.58 1029.37 1028.82 1028.74 1028.56 1028.54 1028.54 1029.05 1029.25 1029.41 1029.09 1028.22 1027.45 1026.88 1027.24 1027.02 1026.73 1026.07 1025.77 1025.60 1025.27 1025.89 1025.86 1025.72 1025.24 1025.06 1025.02 1024.98 1024.87 1024.41 1023.43 1022.51 1022.48 1022.98 1023.40 1024.02 1024.76 1025.50 1026.01 1026.25 1026.41 1026.67 1027.01 1027.25 1027.49 1027.42 1027.37 1027.17 1026.89 1026.66 1026.41 1026.29 1026.12 1025.87
1028.87 1028.56 1028.39 1028.21 1028.05 1028.02 1027.91 1028.18 1028.44 1027.84 1027.22 1026.53 1026.33 1025.85 1025.66 1025.33 1024.99 1024.71 1024.33 1024.58 1024.90 1024.88 1024.66 1024.28 1024.10 1024.05 1024.17 1023.82 1023.36 1022.84 1022.68 1022.74 1022.89 1023.27 1023.96 1024.60 1025.09 1025.64 1026.14 1026.50 1026.74 1026.89 1027.02 1027.22 1027.37 1027.40 1027.27 1027.28 1027.07 1026.93 1026.77 1026.58 1026.27 1025.85
1027.91 1027.69 1027.54 1027.39 1027.35 1027.34 1027.00 1026.83 1026.73 1026.00 1025.17 1024.97 1024.42 1024.45 1024.43 1024.00 1023.29 1022.93 1022.94 1023.21 1023.47 1023.45 1023.85 1023.57 1023.68 1023.41 1023.49 1023.13 1023.47 1023.80 1024.17 1024.43 1024.64 1024.91 1025.13 1025.73 1026.06 1026.36 1026.59 1026.75 1027.05 1027.26 1027.42 1027.51 1027.47 1027.28 1027.28 1027.38 1027.45 1027.26 1027.17 1026.84 1026.33 1025.93
1026.94 1026.70 1026.44 1026.39 1026.53 1026.31 1025.96 1025.41 1025.37 1024.77 1023.99 1023.47 1023.11 1023.37 1023.36 1022.70 1022.21 1022.23 1022.38 1022.96 1023.64 1024.12 1024.09 1023.98 1023.87 1024.43 1025.09 1025.68 1025.80 1025.99 1026.31 1026.29 1026.13 1026.22 1026.19 1026.85 1027.21 1027.37 1027.40 1027.26 1027.37 1027.61 1027.86 1027.95 1028.00 1027.49 1027.37 1027.44 1027.39 1027.45 1027.33 1026.80 1026.52 1026.28
1025.93 1025.56 1025.27 1025.66 1025.49 1025.59 1024.95 1024.13 1023.97 1023.33 1022.85 1022.92 1022.37 1022.49 1022.29 1021.88 1022.04 1022.27 1022.74 1023.14 1024.02 1024.58 1024.85 1026.40 1026.93 1027.31 1027.64 1027.97 1028.17 1028.39 1028.48 1028.24 1028.07 1028.01 1027.95 1027.91 1028.10 1028.28 1028.32 1028.15 1027.94 1027.81 1028.01 1028.24 1028.45 1028.43 1028.25 1028.05 1027.67 1027.44 1027.32 1027.10 1026.85 1026.47
1025.21 1024.95 1024.91 1024.53 1024.40 1024.04 1023.29 1022.53 1022.47 1022.26 1022.44 1021.76 1022.09 1022.20 1022.28 1022.16 1022.09 1022.23 1022.45 1023.71 1026.69 1028.35 1028.81 1028.96 1029.00 1028.90 1029.06 1029.19 1029.37 1029.60 1029.93 1029.96 1029.91 1029.77 1029.29 1029.03 1028.95 1028.96 1028.96 1028.76 1028.59 1028.50 1028.42 1028.47 1028.62 1028.68 1028.62 1028.43 1027.81 1027.48 1027.30 1027.11 1026.90 1026.54
1024.36 1024.08 1024.34 1024.21 1023.91 1023.12 1022.59 1022.34 1022.27 1022.11 1022.12 1021.93 1022.10 1021.95 1021.96 1022.44 1023.62 1023.65 1025.76 1027.92 1029.45 1030.25 1030.37 1030.39 1030.23 1030.15 1030.19 1030.35 1030.51 1030.74 1030.87 1030.84 1030.70 1030.69 1030.56 1030.24 1030.02 1029.69 1029.41 1029.34 1029.29 1028.94 1028.70 1028.74 1028.72 1028.66 1028.59 1028.25 1028.14 1027.64 1027.53 1027.28 1026.93 1026.56
1024.63 1024.57 1024.87 1024.81 1025.35 1024.94 1024.41 1024.22 1024.17 1024.30 1024.01 1024.18 1024.29 1024.15 1024.33 1024.69 1024.89 1025.87 1027.96 1029.71 1030.91 1031.41 1031.47 1031.45 1031.29 1031.10 1031.02 1031.18 1031.41 1031.57 1031.78 1031.79 1031.74 1031.56 1031.32 1031.03 1030.71 1030.46 1030.29 1029.98 1029.59 1029.15 1028.85 1028.87 1028.82 1028.65 1028.53 1028.33 1027.97 1027.78 1027.50 1027.24 1026.92 1026.43
1026.55 1028.13 1028.31 1028.45 1028.26 1028.00 1027.33 1026.95 1026.43 1026.40 1026.63 1026.52 1026.11 1025.98 1026.17 1026.23 1026.58 1028.13 1029.57 1031.05 1031.76 1032.31 1032.54 1032.50 1032.40 1032.30 1032.39 1032.50 1032.54 1032.55 1032.61 1032.67 1032.61 1032.35 1031.81 1031.49 1031.24 1031.00 1030.74 1030.33 1029.87 1029.41 1028.89 1028.88 1028.82 1028.61 1028.41 1028.13 1027.81 1027.55 1027.26 1027.00 1026.52 1025.99
1029.77 1031.15 1031.39 1031.58 1031.15 1030.85 1030.30 1029.58 1029.08 1029.14 1029.20 1029.21 1029.49 1029.29 1028.47 1028.45 1029.05 1030.42 1031.49 1032.30 1032.90 1033.42 1033.74 1033.79 1033.76 1033.61 1033.53 1033.58 1033.51 1033.40 1033.30 1033.18 1033.24 1032.99 1032.15 1031.65 1031.59 1031.59 1031.14 1030.77 1030.23 1029.48 1028.77 1028.62 1028.69 1028.37 1028.00 1027.70 1027.37 1027.05 1026.74 1026.39 1026.04 1025.98
1033.73 1034.36 1034.06 1033.95 1034.11 1033.80 1032.93 1032.13 1032.14 1032.31 1032.52 1032.89 1033.05 1032.50 1031.73 1031.18 1031.46 1032.45 1033.05 1033.65 1034.09 1034.60 1034.68 1034.78 1034.81 1034.72 1034.63 1034.49 1034.10 1033.79 1033.41 1033.35 1033.38 1032.96 1032.13 1031.66 1031.27 1031.01 1030.88 1030.70 1029.95 1029.17 1028.63 1028.29 1028.07 1027.70 1027.39 1027.06 1026.72 1026.28 1025.88 1025.67 1025.63 1025.75
1036.69 1037.30 1037.62 1036.79 1036.41 1035.86 1035.68 1035.26 1035.23 1035.31 1035.36 1035.67 1035.58 1035.14 1034.18 1033.61 1033.59 1033.80 1034.09 1034.41 1034.81 1035.03 1035.36 1034.99 1034.80 1034.82 1034.81 1034.49 1034.11 1033.90 1033.56 1033.03 1032.74 1032.27 1031.68 1031.01 1030.35 1029.98 1029.67 1029.40 1029.14 1028.12 1027.60 1027.71 1027.36 1026.94 1026.61 1026.22 1025.79 1025.21 1024.77 1024.78 1025.02 1025.09
1038.72 1039.03 1039.01 1039.32 1038.89 1038.13 1037.68 1037.49 1037.37 1037.26 1037.43 1037.77 1037.96 1037.21 1035.71 1034.72 1034.47 1034.35 1034.44 1034.63 1034.83 1035.49 1035.58 1035.56 1034.97 1034.66 1034.55 1034.01 1033.63 1033.28 1033.09 1033.22 1033.12 1032.39 1031.54 1030.73 1030.02 1029.48 1028.97 1028.58 1028.09 1027.58 1027.31 1027.08 1026.52 1025.92 1025.49 1024.86 1024.18 1023.57 1023.65 1024.23 1024.40 1024.26
1040.60 1040.69 1040.79 1041.15 1040.83 1040.10 1038.99 1038.73 1038.91 1038.82 1038.74 1038.83 1038.66 1037.80 1036.63 1035.34 1034.51 1034.25 1034.63 1034.87 1035.30 1035.51 1035.11 1035.01 1034.93 1035.03 1034.88 1034.43 1033.65 1032.87 1032.13 1031.85 1032.05 1031.98 1031.20 1030.25 1029.57 1028.83 1028.41 1027.92 1027.43 1026.80 1026.59 1026.39 1025.98 1025.42 1024.83 1024.51 1024.10 1023.81 1023.92 1023.96 1023.92 1024.02
1041.65 1041.82 1042.24 1042.00 1041.53 1040.18 1039.86 1039.75 1039.70 1039.84 1039.77 1039.91 1039.28 1039.09 1037.85 1036.49 1034.95 1033.89 1034.09 1034.16 1034.61 1034.67 1034.70 1034.75 1034.30 1033.82 1033.83 1033.37 1032.94 1032.25 1031.25 1030.74 1030.50 1030.23 1029.87 1029.25 1028.59 1028.09 1027.43 1026.67 1026.25 1025.77 1025.54 1025.33 1025.04 1024.77 1024.46 1024.17 1024.03 1023.81 1023.69 1023.63 1023.54 1023.42
1042.76 1043.55 1043.93 1043.64 1042.01 1040.74 1040.61 1040.69 1040.65 1040.95 1040.48 1040.55 1039.71 1039.11 1038.21 1037.48 1036.30 1034.08 1033.20 1033.43 1034.04 1034.11 1033.48 1033.15 1033.39 1032.71 1031.93 1031.71 1031.48 1031.33 1030.69 1030.12 1029.63 1029.13 1028.39 1027.53 1026.84 1026.25 1025.69 1025.17 1024.68 1024.43 1024.25 1024.01 1023.93 1023.90 1023.75 1023.58 1023.44 1023.16 1023.06 1023.00 1022.90 1022.84
1044.18 1044.65 1044.66 1044.52 1043.68 1042.75 1042.37 1042.38 1041.67 1041.68 1041.04 1040.40 1039.58 1039.07 1038.48 1037.87 1036.48 1033.90 1032.38 1032.17 1032.07 1032.05 1031.82 1031.33 1031.01 1031.05 1030.95 1030.74 1030.54 1030.25 1029.90 1029.23 1028.89 1027.20 1026.60 1025.73 1024.72 1023.74 1023.29 1023.16 1023.05 1022.97 1022.97 1023.13 1023.14 1023.02 1023.00 1022.91 1022.77 1022.58 1022.46 1022.38 1022.27 1022.18
Thickness
5472 5473 5472 5471 5470 5467 5470 5468 5468 5468 5470 5473 5474 5474 5474 5473 5472 5471 5466 5465 5461 5458 5463 5462 5458 5454 5451 5450 5441 5441 5435 5433 5426 5423 5431 5435 5434 5428 5415 5436 5400 5391 5385 5376 5381 5375 5392 5374 5379 5370 5351 5342 5335 5325
5464 5463 5462 5460 5459 5458 5457 5457 5458 5457 5458 5460 5461 5461 5460 5459 5458 5456 5453 5450 5446 5442 5442 5439 5437 5432 5427 5422 5420 5418 5413 5408 5404 5418 5411 5412 5403 5406 5395 5380 5401 5369 5384 5373 5388 5371 5362 5354 5348 5343 5335 5325 5316 5306
5456 5455 5453 5450 5449 5448 5449 5448 5447 5446 5446 5448 5448 5448 5446 5444 5441 5440 5438 5435 5433 5426 5425 5424 5421 5414 5408 5402 5395 5393 5391 5380 5381 5368 5372 5371 5362 5372 5356 5363 5379 5380 5375 5355 5364 5346 5338 5334 5333 5334 5323 5314 5301 5298
5448 5446 5446 5444 5442 5441 5441 5439 5438 5437 5436 5437 5436 5433 5432 5430 5428 5426 5422 5417 5414 5408 5403 5406 5404 5398 5389 5381 5376 5370 5361 5355 5350 5346 5347 5344 5340 5358 5347 5349 5347 5353 5352 5352 5350 5330 5321 5318 5321 5312 5303 5299 5294 5291
5443 5441 5440 5438 5435 5434 5432 5430 5428 5428 5427 5427 5424 5423 5420 5417 5415 5410 5404 5398 5395 5388 5381 5384 5384 5379 5371 5363 5354 5343 5337 5332 5334 5333 5332 5332 5330 5332 5328 5326 5322 5334 5331 5323 5329 5324 5315 5312 5308 5303 5292 5288 5285 5274
5436 5435 5433 5431 5430 5429 5426 5423 5420 5419 5418 5416 5413 5410 5407 5403 5398 5393 5388 5380 5375 5370 5363 5357 5362 5357 5351 5339 5327 5324 5322 5319 5318 5315 5303 5310 5318 5314 5299 5304 5313 5325 5324 5327 5313 5315 5309 5306 5302 5294 5283 5279 5270 5263
5431 5429 5427 5425 5424 5422 5420 5417 5415 5412 5409 5406 5404 5400 5396 5393 5387 5380 5369 5359 5355 5350 5340 5338 5336 5339 5328 5322 5319 5314 5307 5304 5301 5297 5296 5302 5306 5296 5292 5288 5305 5301 5303 5306 5300 5293 5294 5294 5277 5275 5271 5266 5258 5251
5426 5424 5422 5420 5418 5416 5414 5411 5408 5405 5401 5399 5396 5391 5385 5381 5374 5367 5359 5352 5345 5337 5328 5319 5316 5321 5317 5310 5304 5300 5299 5294 5294 5288 5291 5290 5289 5287 5290 5287 5284 5284 5282 5280 5281 5277 5268 5265 5264 5260 5252 5244 5239 5232
5420 5417 5415 5413 5411 5408 5406 5402 5399 5397 5395 5392 5387 5383 5377 5368 5360 5353 5346 5341 5333 5325 5319 5316 5316 5297 5305 5301 5294 5290 5288 5288 5283 5283 5283 5276 5275 5279 5274 5271 5271 5268 5267 5261 5259 5256 5250 5250 5245 5240 5232 5223 5222 5215
5413 5411 5407 5405 5402 5399 5395 5393 5391 5389 5387 5384 5379 5369 5365 5354 5350 5342 5338 5327 5323 5315 5309 5309 5305 5292 5291 5286 5279 5275 5279 5284 5276 5274 5267 5267 5268 5260 5250 5249 5248 5248 5245 5241 5241 5239 5236 5237 5228 5223 5215 5211 5211 5210
5404 5402 5400 5395 5392 5391 5387 5383 5382 5381 5376 5370 5364 5356 5350 5342 5337 5326 5316 5308 5301 5299 5302 5297 5292 5284 5280 5267 5265 5264 5266 5270 5253 5256 5252 5265 5251 5244 5237 5233 5234 5234 5233 5229 5224 5220 5214 5212 5212 5208 5204 5206 5203 5199
5395 5392 5389 5386 5383 5381 5378 5373 5370 5365 5360 5354 5347 5342 5336 5327 5314 5306 5295 5286 5280 5296 5295 5288 5283 5275 5278 5266 5263 5252 5250 5242 5243 5244 5248 5240 5235 5229 5223 5224 5224 5226 5225 5223 5216 5208 5203 5201 5197 5196 5193 5191 5186 5180
5386 5382 5379 5376 5373 5369 5365 5361 5357 5353 5349 5341 5332 5331 5320 5303 5287 5283 5276 5281 5276 5289 5285 5276 5271 5267 5265 5254 5251 5248 5248 5234 5241 5244 5244 5238 5224 5222 5219 5219 5220 5218 5221 5216 5207 5197 5192 5188 5186 5182 5179 5174 5171 5170
5376 5372 5366 5363 5359 5358 5355 5349 5344 5339 5333 5318 5306 5297 5294 5286 5284 5298 5294 5292 5287 5282 5275 5270 5265 5257 5261 5250 5241 5240 5232 5232 5227 5238 5235 5225 5220 5219 5219 5217 5215 5214 5206 5196 5190 5187 5183 5181 5176 5172 5168 5164 5163 5160
5366 5362 5356 5353 5350 5345 5342 5337 5331 5325 5316 5304 5297 5287 5291 5297 5291 5288 5276 5271 5272 5269 5264 5260 5254 5250 5244 5241 5232 5227 5223 5211 5231 5237 5238 5235 5224 5217 5216 5211 5206 5202 5194 5188 5182 5177 5171 5167 5162 5157 5152 5148 5145 5144
5356 5353 5346 5341 5337 5331 5326 5323 5316 5309 5306 5303 5303 5300 5287 5280 5278 5271 5262 5261 5264 5260 5254 5250 5246 5244 5234 5230 5231 5215 5214 5223 5240 5236 5231 5221 5218 5207 5200 5194 5189 5183 5174 5168 5162 5157 5150 5145 5143 5139 5137 5133 5129 5126
5342 5339 5336 5329 5323 5318 5312 5307 5301 5298 5297 5304 5303 5296 5287 5282 5277 5272 5267 5262 5260 5250 5249 5245 5243 5237 5225 5231 5222 5223 5229 5238 5228 5218 5214 5209 5198 5186 5177 5174 5169 5162 5154 5148 5141 5137 5133 5131 5126 5123 5122 5118 5113 5111
5330 5327 5322 5316 5309 5304 5303 5295 5286 5286 5293 5297 5298 5296 5283 5282 5278 5274 5260 5251 5246 5241 5240 5241 5238 5237 5232 5212 5224 5237 5231 5218 5215 5207 5198 5186 5178 5171 5164 5157 5151 5146 5141 5135 5128 5122 5119 5114 5111 5107 5102 5098 5096 5096
5317 5314 5310 5304 5295 5285 5283 5285 5282 5281 5291 5281 5288 5283 5274 5275 5279 5276 5269 5250 5247 5240 5233 5234 5231 5233 5228 5223 5217 5205 5200 5193 5188 5180 5173 5162 5156 5151 5145 5140 5133 5127 5122 5116 5111 5105 5103 5098 5091 5087 5081 5078 5078 5076
5305 5302 5298 5292 5282 5274 5273 5274 5266 5272 5272 5279 5276 5272 5263 5266 5266 5263 5256 5239 5230 5222 5220 5223 5227 5206 5190 5179 5175 5170 5162 5159 5159 5156 5154 5142 5135 5128 5124 5120 5115 5107 5100 5094 5089 5090 5084 5077 5072 5065 5060 5058 5053 5049
5292 5291 5286 5277 5274 5266 5264 5268 5261 5260 5257 5257 5257 5253 5249 5246 5243 5233 5225 5228 5219 5216 5213 5170 5162 5157 5152 5146 5143 5137 5132 5130 5127 5124 5121 5116 5112 5104 5098 5096 5092 5088 5080 5071 5063 5059 5056 5050 5047 5043 5037 5032 5026 5024
5281 5273 5269 5269 5263 5261 5263 5268 5258 5253 5245 5247 5243 5235 5222 5223 5231 5219 5219 5212 5155 5148 5144 5139 5136 5135 5130 5124 5119 5112 5106 5102 5099 5093 5093 5090 5085 5080 5074 5072 5068 5062 5056 5050 5044 5035 5030 5025 5022 5019 5013 5007 5002 5000
5268 5264 5258 5255 5251 5256 5252 5248 5246 5242 5236 5231 5217 5218 5225 5211 5186 5190 5154 5139 5126 5120 5118 5115 5113 5110 5105 5099 5094 5087 5080 5076 5073 5069 5064 5060 5057 5055 5052 5046 5040 5037 5032 5026 5021 5011 5003 5003 4994 4993 4986 4982 4981 4979
5250 5247 5238 5232 5214 5213 5214 5211 5206 5199 5200 5195 5195 5197 5186 5174 5169 5153 5127 5115 5106 5098 5092 5089 5086 5083 5080 5073 5067 5061 5054 5050 5045 5042 5039 5035 5031 5026 5022 5018 5014 5013 5009 5000 4995 4989 4981 4976 4976 4968 4965 4963 4961 4963
5225 5197 5195 5184 5181 5176 5180 5176 5182 5179 5174 5170 5175 5170 5156 5150 5153 5122 5108 5093 5085 5076 5069 5065 5061 5057 5049 5042 5038 5033 5026 5020 5015 5011 5010 5008 5002 4998 4993 4989 4986 4983 4982 4973 4969 4967 4963 4959 4955 4952 4950 4948 4950 4954
5177 5161 5156 5147 5146 5147 5147 5146 5150 5145 5135 5126 5115 5112 5117 5120 5105 5086 5077 5067 5058 5049 5040 5034 5029 5025 5019 5013 5005 4999 4995 4990 4984 4979 4982 4979 4972 4966 4967 4964 4962 4961 4961 4957 4952 4951 4948 4946 4944 4939 4939 4937 4940 4938
5137 5125 5125 5121 5108 5106 5108 5110 5101 5089 5077 5074 5064 5066 5066 5061 5063 5056 5047 5037 5028 5016 5011 5005 4999 4994 4988 4984 4981 4977 4973 4968 4963 4963 4964 4960 4956 4953 4951 4946 4944 4948 4948 4944 4941 4941 4939 4938 4935 4934 4934 4931 4929 4925
5109 5093 5082 5085 5079 5085 5075 5074 5071 5064 5059 5048 5043 5024 5034 5032 5039 5029 5021 5014 5007 5001 4995 4990 4986 4980 4973 4970 4966 4961 4958 4956 4953 4951 4950 4947 4944 4942 4942 4941 4940 4941 4943 4936 4935 4934 4931 4931 4930 4931 4931 4928 4921 4920
5087 5085 5080 5058 5044 5056 5059 5056 5049 5050 5042 5032 5017 5022 5026 5027 5019 5014 5012 5005 4997 4989 4983 4978 4974 4968 4963 4960 4955 4951 4947 4940 4933 4934 4933 4938 4937 4934 4932 4932 4931 4931 4930 4928 4928 4929 4930 4932 4933 4934 4930 4922 4918 4917
5072 5068 5060 5042 5046 5053 5055 5047 5036 5027 5022 5015 5008 5007 5013 5014 5013 5010 5003 4994 4986 4980 4975 4968 4961 4952 4950 4943 4948 4946 4939 4935 4929 4923 4926 4928 4927 4927 4925 4925 4925 4926 4924 4922 4922 4922 4924 4924 4923 4920 4917 4916 4915 4913
5067 5058 5051 5046 5045 5050 5038 5028 5020 5015 5005 4997 4994 4989 4996 5000 5006 5007 5001 4993 4985 4975 4966 4962 4958 4952 4946 4946 4939 4943 4947 4937 4932 4927 4923 4922 4921 4920 4921 4923 4923 4924 4922 4920 4919 4918 4918 4917 4915 4915 4913 4911 4910 4915
5055 5037 5032 5035 5044 5036 5026 5020 5011 5005 5000 4994 4995 4986 4987 4987 4988 4999 5002 4992 4978 4970 4973 4971 4957 4958 4955 4950 4945 4940 4940 4937 4934 4930 4926 4926 4925 4926 4928 4928 4927 4926 4923 4921 4919 4917 4917 4915 4915 4916 4914 4911 4910 4909
5034 5021 5015 5012 5021 5027 5018 5013 5008 5003 4996 4992 4992 4989 4981 4981 4984 4998 5003 4998 4993 4986 4980 4975 4970 4964 4957 4952 4948 4944 4941 4938 4936 4937 4935 4936 4937 4939 4938 4936 4933 4932 4929 4924 4920 4919 4917 4915 4914 4914 4912 4912 4911 4909